Regional Weather Roundup
Issued by NWS Green Bay, WI

Home | Current Version | Previous Version | Graphics & Text | Print | Product List | Glossary Off
Versions: 1 2 3 4 5 6 7 8 9 10 11 12 13 14 15 16 17 18 19 20 21 22 23 24 25 26 27 28 29 30 31 32 33 34 35 36 37 38 39 40 41 42 43 44 45 46 47 48 49 50

708
ASUS43 KGRB 271211
RWRGRB

NORTH-CENTRAL AND NORTHEAST WISCONSIN REGIONAL WEATHER ROUNDUP
NATIONAL WEATHER SERVICE GREEN BAY WI
700 AM CDT SUN MAY 27 2018

WIZ005-009-010>012-018-019-271300-
NORTH CENTRAL WISCONSIN

CITY           SKY/WX    TMP DP  RH WIND       PRES   REMARKS
IRONWOOD       FAIR      59  55  87 CALM      29.84S
MANITOWISH WTR FAIR      58  58 100 CALM      29.84R
ARBOR VITAE    FAIR      62  60  92 CALM      29.84R
EAGLE RIVER    FAIR      60  60 100 CALM      29.84R
LAND O LAKES   FAIR      58  58 100 CALM      29.86R
RHINELANDER    FAIR      67  63  87 W3        29.85R
PHILLIPS       FAIR      60  59  97 CALM      29.84R
ANTIGO         FAIR      60  60 100 CALM      29.85R
TOMAHAWK       FAIR      56  56  97 CALM      29.85R
MERRILL        FAIR      58  58  99 CALM      29.85R
$$

WIZ013-073-271300-
NORTHEAST WISCONSIN

CITY           SKY/WX    TMP DP  RH WIND       PRES   REMARKS
IRON MOUNTAIN  FAIR      63  60  90 CALM      29.80R
MARINETTE      FAIR      63  59  87 CALM      29.81R
OCONTO         FAIR      61  58  88 CALM      29.80R
$$

WIZ017-030-035>037-045-271300-
CENTRAL WISCONSIN

CITY           SKY/WX    TMP DP  RH WIND       PRES   REMARKS
MEDFORD        FAIR      62  60  93 CALM      29.85R
WAUSAU         NOT AVBL
MOSINEE        MOSUNNY   64  63  94 CALM      29.85R
MARSHFIELD     FAIR      69  65  86 CALM      29.82S
WISC RAPIDS    FAIR      68  63  84 CALM      29.83S
STEVENS POINT  FAIR      64  63  95 CALM      29.84R
WAUPACA        FAIR      71  66  83 CALM      29.82R
SHAWANO        FAIR      66  63  89 CALM      29.82R
CLINTONVILLE   FAIR      65  64  95 CALM      29.82R
WAUTOMA        FAIR      68  64  87 CALM      29.83R
$$

WIZ038-039-048-051-271300-
FOX VALLEY

CITY           SKY/WX    TMP DP  RH WIND       PRES   REMARKS
NWS GREEN BAY  FAIR      68  63  84 SW5       29.81R
APPLETON       SUNNY     72  63  73 SW6       29.81R
OSHKOSH        FAIR      73  66  78 S3        29.82R
FOND DU LAC    FAIR      75  63  66 SW9       29.83R
$$

WIZ022-050-052-271300-
EAST CENTRAL WISCONSIN

CITY           SKY/WX    TMP DP  RH WIND       PRES   REMARKS
EPHRAIM        FAIR      63  58  83 CALM      29.79R
WASHINGTON ISL FAIR      56  52  87 CALM      29.80R
STURGEON BAY   FAIR      64  59  83 NW5       29.81R
MANITOWOC      NOT AVBL
SHEBOYGAN      FAIR      71  64  78 W5        29.82R
$$

LMZ563-521-522-541>543-271300-
LAKESHORE

STATION/POSITION TIME  TEMP    WIND        PRES    VSBY  WAVE
                       AIR SEA DIR/SP/G                  HT/PER
                 (UTC) (F)     (DEG/KT/KT) (MB)    (MI)  (FT/S)
SHEBOYGAN LKSHOR 1200   64     180/  8/  8 1009.4R
KEWAUNEE LKSHORE 1142   60      CALM  /  3 1008.4R
NORTHPORT PIER   1140   55      CALM  /  1 1009.1R
N MID LAKE BUOY  1150   46 38  190/ 10/ 12 1009.3R         1
SISTER BAY LKSHO 1112   56        CALM       N/A
MENOMINEE LKSHOR 1142   60     120/  2/  2 1008.7R
$$




USA.gov is the U.S. government's official web portal to all federal, state and local government web resources and services.